Wind_Speed
36 29 35 32 32 33 36 38 38 36 31 35 29 30 29 27 25 25 22 17 15 15 18 17 15 16 21 24 25 24 21 20
30 25 31 32 33 34 38 40 40 40 40 40 31 28 26 26 26 27 26 22 19 17 18 19 16 18 19 23 24 25 24 23
30 27 30 31 38 41 39 44 44 42 42 42 36 28 26 26 27 30 28 25 23 20 20 20 19 16 21 25 27 29 28 26
32 30 22 32 32 37 41 40 39 40 41 43 41 33 29 27 30 31 30 28 26 22 23 22 22 19 20 24 26 29 31 30
29 33 31 29 34 37 39 40 41 40 42 46 41 33 30 26 28 31 32 29 27 27 25 24 24 21 19 24 27 28 33 34
40 31 31 37 38 37 38 39 41 44 45 47 44 35 30 29 30 34 34 30 30 30 27 26 25 22 20 23 28 30 33 32
28 40 30 33 31 35 41 43 43 45 46 44 42 34 32 30 30 32 33 32 32 31 28 27 26 22 21 22 27 31 34 30
36 38 34 36 38 35 34 37 41 42 43 39 35 34 34 30 31 30 32 32 31 30 27 28 27 22 22 24 28 33 35 35
33 34 40 43 37 35 32 31 35 40 38 30 32 33 34 32 32 32 31 31 31 30 28 29 27 23 24 27 28 34 37 36
35 38 37 39 39 37 37 37 40 40 36 33 33 33 34 33 32 33 30 31 32 31 28 28 26 24 26 29 31 35 38 38
29 29 30 30 25 26 26 27 30 32 31 32 33 32 33 33 29 31 29 30 32 29 27 29 25 25 26 27 31 30 38 42
22 22 19 20 19 18 21 25 26 26 28 30 33 33 32 32 31 30 31 33 32 27 28 28 24 25 24 24 25 27 29 35
23 22 22 17 14 16 18 21 23 26 27 30 31 33 34 35 34 35 35 34 31 29 29 25 23 24 22 23 28 30 31 38
22 21 14 10 12 14 17 20 22 24 26 29 29 31 36 34 35 35 34 33 29 28 27 23 22 21 21 22 25 29 31 40
18 15 11 9 8 9 11 12 16 19 23 25 27 30 37 40 35 34 33 31 29 27 24 22 18 17 18 17 16 20 23 28
25 14 10 5 3 6 8 9 7 8 11 19 25 27 28 31 33 30 33 32 28 26 22 19 15 13 10 8 11 17 18 28
21 12 7 4 1 5 8 7 6 6 8 11 20 29 32 33 30 29 33 31 27 25 22 15 14 14 14 12 7 4 6 25
12 8 4 3 6 6 7 9 10 8 16 16 17 18 24 33 33 33 35 31 27 25 21 14 15 15 15 16 12 4 2 4
6 2 3 4 10 9 9 10 10 9 8 11 16 18 22 24 29 32 28 27 27 27 20 16 17 16 13 15 16 9 11 8
Wind_Direction
253 242 236 234 226 231 242 248 254 260 262 265 264 247 248 247 248 251 254 253 267 287 301 308 302 270 242 234 231 234 239 239
233 244 245 234 234 235 239 243 245 253 253 259 267 257 253 248 244 242 250 251 257 269 283 295 302 283 257 242 234 234 234 238
231 232 238 229 232 230 235 239 245 250 252 259 266 256 250 249 244 237 244 250 256 262 273 286 293 284 261 247 234 233 230 227
229 228 223 223 221 225 231 233 238 245 252 257 262 257 250 248 239 233 239 245 255 259 268 279 287 285 263 250 241 238 236 232
229 221 224 216 215 224 234 238 240 246 251 256 263 258 254 249 243 234 239 244 250 258 265 274 284 283 265 249 245 244 239 236
234 224 225 236 232 234 234 237 242 248 252 256 261 256 254 250 242 237 239 241 246 257 262 271 281 280 267 252 244 249 241 242
234 232 229 232 228 227 234 240 242 246 251 254 258 249 250 249 245 241 236 236 244 253 261 270 280 274 267 254 248 250 242 248
234 231 225 222 222 218 221 227 234 242 250 252 248 242 247 248 244 242 237 234 244 254 259 268 276 273 266 255 252 250 247 241
195 206 215 218 213 218 219 226 240 246 248 248 248 242 243 246 245 242 238 234 243 249 255 266 273 272 270 262 254 252 254 244
199 205 214 220 229 242 236 235 238 245 248 249 248 242 239 243 243 242 238 238 245 254 257 266 270 274 274 268 263 258 254 238
209 210 218 221 223 227 222 224 235 242 243 242 239 241 237 239 237 239 241 244 249 254 259 269 272 278 280 274 269 260 248 238
208 221 208 207 217 225 233 237 235 238 237 234 233 234 232 233 230 236 245 248 251 253 263 270 277 281 277 270 268 258 253 237
208 197 204 212 231 242 245 244 240 234 235 232 229 232 225 225 228 234 241 244 247 252 262 270 278 279 277 272 268 256 247 250
199 206 205 223 245 252 255 252 246 237 233 231 227 214 221 228 230 235 240 241 244 253 262 269 276 281 280 271 266 259 257 252
152 163 197 228 266 282 287 281 254 236 228 226 214 216 220 230 230 237 241 240 242 251 258 268 277 279 280 270 262 263 252 236
170 190 175 196 282 305 319 312 281 254 232 221 214 210 222 226 234 240 242 240 243 248 256 264 273 273 255 253 276 266 254 238
186 191 155 127 16 351 351 345 273 279 240 238 230 223 224 229 229 238 245 242 242 244 250 257 265 257 243 235 284 248 283 231
140 167 114 21 347 359 357 351 357 279 252 238 235 242 239 235 242 244 242 237 236 239 243 246 252 246 235 220 246 277 218 237
74 95 53 341 322 337 339 336 332 332 332 262 255 240 234 247 233 244 236 237 233 234 235 237 241 240 224 208 229 223 206 199
Height
3058 3061 3064 3068 3071 3074 3076 3079 3081 3083 3089 3090 3092 3094 3096 3099 3101 3102 3104 3105 3106 3106 3105 3105 3105 3106 3108 3110 3113 3116 3118 3120
3050 3052 3056 3060 3063 3067 3068 3071 3074 3076 3080 3082 3086 3088 3090 3092 3096 3098 3099 3101 3102 3103 3103 3102 3102 3102 3104 3106 3108 3112 3114 3116
3042 3045 3049 3052 3057 3060 3062 3063 3066 3069 3072 3076 3080 3082 3084 3086 3089 3092 3094 3095 3096 3097 3098 3098 3098 3098 3099 3100 3103 3106 3108 3110
3031 3038 3041 3045 3048 3052 3055 3057 3060 3063 3065 3069 3072 3075 3077 3079 3082 3085 3088 3089 3090 3092 3093 3093 3093 3093 3093 3096 3098 3100 3102 3106
3025 3028 3035 3038 3042 3045 3047 3050 3052 3056 3059 3060 3063 3068 3070 3073 3076 3079 3082 3084 3085 3086 3087 3088 3087 3087 3088 3091 3093 3095 3096 3099
3018 3022 3026 3032 3036 3039 3042 3045 3046 3048 3051 3054 3056 3060 3063 3066 3068 3072 3075 3078 3079 3080 3081 3082 3082 3081 3082 3084 3087 3088 3090 3092
3010 3015 3019 3023 3026 3031 3035 3038 3040 3040 3043 3046 3049 3052 3055 3057 3060 3063 3068 3071 3073 3074 3074 3076 3076 3076 3076 3078 3080 3082 3084 3085
2998 3004 3008 3012 3016 3020 3026 3029 3031 3032 3035 3039 3041 3044 3046 3049 3052 3056 3059 3063 3066 3068 3069 3070 3070 3069 3070 3071 3073 3074 3076 3078
2991 2996 3001 3002 3007 3012 3017 3021 3021 3025 3028 3033 3033 3036 3038 3042 3044 3049 3053 3056 3059 3061 3063 3063 3063 3063 3063 3063 3065 3066 3068 3070
2987 2990 2994 2999 3003 3009 3012 3015 3015 3015 3022 3024 3026 3028 3031 3034 3037 3040 3047 3050 3052 3054 3056 3057 3056 3056 3056 3056 3056 3058 3059 3061
2984 2988 2992 2995 2999 3003 3005 3008 3009 3010 3013 3015 3017 3021 3025 3027 3030 3035 3039 3044 3045 3047 3049 3049 3050 3049 3049 3048 3048 3048 3049 3051
2983 2987 2991 2994 2997 2999 3000 3001 3003 3003 3004 3006 3010 3014 3018 3021 3026 3030 3033 3035 3038 3041 3041 3042 3043 3042 3041 3040 3040 3041 3041 3042
2978 2985 2987 2989 2992 2993 2994 2995 2996 2997 2997 3000 3003 3007 3011 3016 3020 3023 3027 3029 3031 3034 3035 3036 3036 3034 3033 3032 3032 3032 3032 3033
2977 2985 2987 2989 2990 2988 2988 2989 2989 2990 2991 2993 2997 3002 3007 3010 3015 3017 3020 3022 3025 3027 3029 3029 3029 3027 3025 3024 3023 3024 3023 3023
2973 2977 2983 2986 2986 2985 2985 2984 2983 2983 2984 2987 2991 2996 3000 3003 3007 3011 3013 3016 3018 3020 3022 3023 3022 3020 3019 3017 3017 3017 3015 3015
2969 2977 2975 2979 2982 2983 2983 2982 2981 2980 2981 2984 2988 2992 2995 2999 3002 3005 3007 3009 3012 3014 3016 3016 3016 3015 3015 3014 3013 3011 3010 3010
2969 2973 2976 2977 2979 2980 2981 2981 2979 2977 2978 2981 2985 2987 2991 2993 2995 2997 3001 3003 3005 3008 3010 3010 3010 3011 3011 3011 3010 3008 3007 3007
2967 2971 2974 2976 2978 2979 2979 2978 2977 2976 2977 2977 2981 2983 2985 2989 2990 2993 2995 2997 2999 3002 3004 3004 3006 3007 3006 3008 3008 3008 3007 3006
2969 2971 2968 2972 2977 2977 2977 2976 2976 2976 2974 2974 2975 2977 2980 2982 2983 2987 2989 2990 2993 2995 2998 2999 3002 3003 3002 3004 3006 3007 3007 3007